Location: Cran-Gévrier
(45.9039°N, 6.1012°E)
Time: 10:14:15
(UTC+00:00)

USA 215 - Pass Details

Date: 09 February 2023
Orbit: 1102 x 1105 km, 123.0° (Epoch: 27 March)

Event Time Altitude Azimuth Distance (km) Brightness Sun altitude
Exits shadow 19:09:52 12° 159° (SSE) 2,771 5.1 -24.3°
Maximum altitude 19:15:31 44° 228° (SW) 1,485 4.2 -25.3°
Drops below altitude 10° 19:21:43 10° 299° (WNW) 2,965 6.4 -26.3°
Sets 19:24:21 0° 306° (NW) 3,926 7.1 -26.8°
